• In Netherlands
  • List of Countries
  • For 7 days
  • Water Temperature
  • Satellite Maps
  • Weather Map
  • Weather Widgets
  • user-avatar
    Login

    Hourly Weather Nakhchivan

    Today, 29 April, Saturday

    Time Temperature Precipitation Wind Pressure Humidity
    00:00 +15°C° 0.1 mm 1 mps 689 mmHg 62%
    01:00 +15°C° 0 mm 1 mps 689 mmHg 63%
    02:00 +14°C° 0 mm 1 mps 689 mmHg 65%
    03:00 +14°C° 0 mm 1 mps 688 mmHg 66%
    04:00 +14°C° 0 mm 1 mps 688 mmHg 66%
    05:00 +14°C° 0 mm 1 mps 688 mmHg 66%
    06:00 +14°C° 0 mm 1 mps 688 mmHg 65%
    07:00 +16°C° 0.1 mm 1 mps 688 mmHg 59%
    08:00 +19°C° 0.1 mm 1 mps 689 mmHg 52%
    09:00 +20°C° 0.1 mm 1 mps 689 mmHg 46%
    10:00 +22°C° 0.1 mm 1 mps 688 mmHg 42%
    11:00 +23°C° 0.1 mm 1 mps 688 mmHg 39%
    12:00 +24°C° 0.1 mm 2 mps 688 mmHg 36%
    13:00 +25°C° 0.1 mm 2 mps 688 mmHg 34%
    14:00 +25°C° 0.1 mm 1 mps 688 mmHg 33%
    15:00 +26°C° 0.1 mm 1 mps 687 mmHg 31%
    16:00 +25°C° 0.1 mm 1 mps 687 mmHg 34%
    17:00 +24°C° 0.1 mm 2 mps 687 mmHg 37%
    18:00 +23°C° 0.1 mm 2 mps 687 mmHg 40%
    19:00 +21°C° 0 mm 2 mps 687 mmHg 45%
    20:00 +20°C° 0 mm 2 mps 687 mmHg 49%
    21:00 +18°C° 0 mm 2 mps 687 mmHg 54%
    22:00 +18°C° 0 mm 2 mps 687 mmHg 56%
    23:00 +17°C° 0 mm 2 mps 687 mmHg 57%

    Tomorrow, 30 April, Sunday

    Time Temperature Precipitation Wind Pressure Humidity
    00:00 +16°C° 0 mm 1 mps 687 mmHg 59%
    01:00 +16°C° 0 mm 1 mps 687 mmHg 59%
    02:00 +15°C° 0 mm 1 mps 687 mmHg 60%
    03:00 +14°C° 0 mm 1 mps 686 mmHg 60%
    04:00 +15°C° 0 mm 1 mps 687 mmHg 59%
    05:00 +15°C° 0 mm 1 mps 687 mmHg 58%
    06:00 +15°C° 0 mm 1 mps 687 mmHg 57%
    07:00 +18°C° 0 mm 1 mps 688 mmHg 50%
    08:00 +20°C° 0 mm 1 mps 688 mmHg 43%
    09:00 +22°C° 0 mm 1 mps 688 mmHg 36%
    10:00 +23°C° 0 mm 1 mps 688 mmHg 33%
    11:00 +25°C° 0 mm 1 mps 688 mmHg 30%
    12:00 +26°C° 0 mm 1 mps 688 mmHg 26%
    13:00 +26°C° 0 mm 1 mps 688 mmHg 25%
    14:00 +27°C° 0 mm 1 mps 687 mmHg 24%
    15:00 +27°C° 0 mm 1 mps 687 mmHg 22%
    16:00 +26°C° 0 mm 1 mps 687 mmHg 24%
    17:00 +26°C° 0 mm 1 mps 687 mmHg 27%
    18:00 +25°C° 0 mm 1 mps 687 mmHg 29%
    19:00 +23°C° 0 mm 1 mps 687 mmHg 32%
    20:00 +21°C° 0 mm 2 mps 687 mmHg 35%
    21:00 +19°C° 0 mm 2 mps 687 mmHg 38%
    22:00 +19°C° 0 mm 2 mps 687 mmHg 39%
    23:00 +18°C° 0 mm 2 mps 687 mmHg 41%

    Day after tomorrow, 1 May, Monday

    Time Temperature Precipitation Wind Pressure Humidity
    00:00 +17°C° 0 mm 2 mps 687 mmHg 42%
    01:00 +18°C° 0 mm 1 mps 687 mmHg 43%
    02:00 +16°C° 0 mm 1 mps 687 mmHg 45%
    03:00 +15°C° 0 mm 1 mps 687 mmHg 46%
    04:00 +16°C° 0 mm 1 mps 687 mmHg 46%
    05:00 +16°C° 0 mm 1 mps 687 mmHg 46%
    06:00 +16°C° 0 mm 1 mps 687 mmHg 47%
    07:00 +19°C° 0 mm 1 mps 688 mmHg 40%
    08:00 +22°C° 0 mm 1 mps 688 mmHg 34%
    09:00 +24°C° 0 mm 1 mps 688 mmHg 27%
    10:00 +25°C° 0 mm 1 mps 688 mmHg 25%
    11:00 +26°C° 0 mm 1 mps 688 mmHg 23%
    12:00 +27°C° 0 mm 1 mps 688 mmHg 20%
    13:00 +28°C° 0 mm 1 mps 688 mmHg 19%
    14:00 +28°C° 0 mm 2 mps 688 mmHg 18%
    15:00 +29°C° 0 mm 2 mps 687 mmHg 18%
    16:00 +28°C° 0 mm 2 mps 687 mmHg 20%
    17:00 +27°C° 0 mm 2 mps 687 mmHg 23%
    18:00 +26°C° 0 mm 2 mps 687 mmHg 25%
    19:00 +25°C° 0.1 mm 2 mps 687 mmHg 30%
    20:00 +23°C° 0.1 mm 2 mps 687 mmHg 34%
    21:00 +20°C° 0.1 mm 2 mps 687 mmHg 38%
    22:00 +20°C° 0 mm 2 mps 687 mmHg 42%
    23:00 +19°C° 0 mm 2 mps 687 mmHg 46%

    2 May, Tuesday

    Time Temperature Precipitation Wind Pressure Humidity
    00:00 +18°C° 0 mm 2 mps 687 mmHg 50%
    01:00 +18°C° 0 mm 2 mps 686 mmHg 51%
    02:00 +18°C° 0 mm 2 mps 686 mmHg 52%
    03:00 +18°C° 0 mm 2 mps 686 mmHg 53%
    04:00 +19°C° 0 mm 1 mps 686 mmHg 53%
    05:00 +19°C° 0 mm 1 mps 686 mmHg 54%
    06:00 +19°C° 0 mm 1 mps 686 mmHg 54%
    07:00 +20°C° 0 mm 2 mps 687 mmHg 49%
    08:00 +21°C° 0 mm 2 mps 687 mmHg 44%
    09:00 +24°C° 0 mm 3 mps 687 mmHg 39%
    10:00 +25°C° 0 mm 3 mps 687 mmHg 37%
    11:00 +26°C° 0 mm 3 mps 687 mmHg 34%
    12:00 +27°C° 0 mm 4 mps 687 mmHg 31%
    13:00 +28°C° 0.1 mm 3 mps 687 mmHg 30%
    14:00 +28°C° 0.1 mm 3 mps 686 mmHg 29%
    15:00 +28°C° 0.1 mm 3 mps 686 mmHg 27%
    16:00 +28°C° 0.1 mm 2 mps 686 mmHg 30%
    17:00 +27°C° 0.1 mm 2 mps 686 mmHg 32%
    18:00 +26°C° 0.1 mm 2 mps 686 mmHg 35%
    19:00 +25°C° 0.2 mm 2 mps 686 mmHg 40%
    20:00 +23°C° 0.2 mm 2 mps 686 mmHg 46%
    21:00 +21°C° 0.2 mm 2 mps 686 mmHg 51%
    22:00 +21°C° 0.3 mm 1 mps 686 mmHg 54%
    23:00 +20°C° 0.3 mm 1 mps 686 mmHg 57%

    3 May, Wednesday

    Time Temperature Precipitation Wind Pressure Humidity
    00:00 +19°C° 0.3 mm 1 mps 685 mmHg 60%
    01:00 +19°C° 0.2 mm 1 mps 685 mmHg 61%
    02:00 +19°C° 0.2 mm 1 mps 685 mmHg 62%
    03:00 +18°C° 0.2 mm 1 mps 685 mmHg 63%
    04:00 +18°C° 0.2 mm 1 mps 685 mmHg 63%
    05:00 +18°C° 0.2 mm 1 mps 685 mmHg 64%
    06:00 +19°C° 0.2 mm 1 mps 685 mmHg 64%
    07:00 +20°C° 0.2 mm 1 mps 685 mmHg 57%
    08:00 +22°C° 0.2 mm 1 mps 686 mmHg 50%
    09:00 +23°C° 0.2 mm 1 mps 686 mmHg 43%
    10:00 +24°C° 0.2 mm 1 mps 686 mmHg 40%
    11:00 +25°C° 0.2 mm 1 mps 685 mmHg 37%
    12:00 +26°C° 0.2 mm 2 mps 685 mmHg 34%
    13:00 +27°C° 0.2 mm 2 mps 685 mmHg 32%
    14:00 +27°C° 0.2 mm 2 mps 685 mmHg 30%
    15:00 +27°C° 0.2 mm 1 mps 684 mmHg 29%
    16:00 +27°C° 0.1 mm 2 mps 684 mmHg 31%
    17:00 +26°C° 0.1 mm 2 mps 684 mmHg 33%
    18:00 +25°C° 0.1 mm 2 mps 684 mmHg 35%
    19:00 +24°C° 0.1 mm 2 mps 684 mmHg 39%
    20:00 +21°C° 0.1 mm 2 mps 684 mmHg 44%
    21:00 +20°C° 0.1 mm 2 mps 684 mmHg 48%
    22:00 +20°C° 0 mm 1 mps 684 mmHg 49%
    23:00 +19°C° 0 mm 1 mps 684 mmHg 51%

    4 May, Thursday

    Time Temperature Precipitation Wind Pressure Humidity
    00:00 +19°C° 0 mm 1 mps 684 mmHg 52%
    01:00 +18°C° 0 mm 1 mps 684 mmHg 52%
    02:00 +18°C° 0 mm 1 mps 684 mmHg 53%
    03:00 +16°C° 0 mm 1 mps 683 mmHg 54%
    04:00 +16°C° 0 mm 1 mps 684 mmHg 53%
    05:00 +18°C° 0 mm 1 mps 684 mmHg 53%
    06:00 +18°C° 0 mm 1 mps 684 mmHg 52%
    07:00 +20°C° 0 mm 1 mps 684 mmHg 46%
    08:00 +22°C° 0 mm 1 mps 685 mmHg 40%
    09:00 +23°C° 0 mm 1 mps 685 mmHg 33%
    10:00 +25°C° 0 mm 1 mps 685 mmHg 31%
    11:00 +26°C° 0 mm 1 mps 684 mmHg 28%
    12:00 +27°C° 0 mm 1 mps 684 mmHg 25%
    13:00 +27°C° 0.1 mm 1 mps 684 mmHg 25%
    14:00 +27°C° 0.1 mm 1 mps 684 mmHg 24%
    15:00 +28°C° 0.1 mm 2 mps 684 mmHg 23%
    16:00 +27°C° 0.1 mm 2 mps 684 mmHg 26%
    17:00 +26°C° 0.1 mm 2 mps 684 mmHg 28%
    18:00 +25°C° 0.1 mm 2 mps 684 mmHg 31%
    19:00 +24°C° 0.3 mm 2 mps 684 mmHg 37%
    20:00 +21°C° 0.3 mm 2 mps 684 mmHg 42%
    21:00 +20°C° 0.3 mm 2 mps 685 mmHg 47%
    22:00 +20°C° 0.1 mm 1 mps 685 mmHg 49%
    23:00 +20°C° 0.1 mm 1 mps 685 mmHg 51%
    Show more